Home   Weather   Norwalk   Past weeks
Flag for USA

Past Weather in Norwalk, California, USA — Yesterday and Last 2 Weeks

Now
59 °F

Mostly cloudy.


Feels Like: 58 °F
Forecast: 64 / 56 °F
Wind: 6 mph from East

Location: Fullerton Municipal Airport

Current Time: May 19, 2019 at 11:36:21 am

Latest Report: May 19, 2019 at 10:53 am


Visibility: 10 mi

Pressure: 29.90 "Hg

Humidity: 72%

Dew Point: 50 °F

Location of NorwalkLocation

Past Weather in Norwalk — Graph

°F

Norwalk Temperature Yesterday

Maximum temperature yesterday: 73 °F (at 1:53 pm)
Minimum temperature yesterday: 54 °F (at 5:53 am)
Average temperature yesterday: 63 °F

High & Low Weather Summary for the Past Weeks

 TemperatureHumidityPressure
High77 °F (May 11, 1:53 pm)90% (May 16, 7:33 am)30.07 "Hg (May 16, 7:33 am)
Low54 °F (May 17, 4:53 am)32% (May 17, 3:53 pm)29.75 "Hg (May 9, 4:53 pm)
Average64 °F67%29.92 "Hg
* Reported May 4 9:53 am — May 19 9:53 am, Norwalk. Weather by CustomWeather, © 2019

Note: Actual official high and low records may vary slightly from our data, if they occured in-between our weather recording intervals... More about our weather records

Advertising

Norwalk Weather History for the Previous 24 Hours

Scroll right to see more
 ConditionsComfort  
Time TempWeatherWind HumidityBarometerVisibility
9:53 am
Sun, May 19
57 °FOvercast.8 mph74%29.90 "Hg10 mi
9:17 am56 °FLight rain. Cloudy.6 mph77%29.90 "Hg7 mi
8:53 am55 °FLight rain. Mostly cloudy.7 mph77%29.90 "Hg7 mi
7:53 am55 °FRain. Overcast.6 mph80%29.89 "Hg4 mi
6:53 am55 °FLight rain. More clouds than sun.No wind74%29.88 "Hg9 mi
5:53 am56 °FRain. Overcast.No wind75%29.88 "Hg4 mi
5:27 am55 °FMostly cloudy.No wind77%29.87 "Hg10 mi
4:53 am55 °FMostly cloudy.No wind74%29.87 "Hg10 mi
3:53 am55 °FLight rain. Overcast.6 mph80%29.89 "Hg10 mi
2:53 am57 °FLight rain. Mostly cloudy.5 mph74%29.90 "Hg10 mi
1:53 am56 °FLight rain. Overcast.5 mph72%29.91 "Hg10 mi
1:42 am57 °FLight rain. Overcast.6 mph72%29.91 "Hg10 mi
1:00 am59 °FLight rain. Mostly cloudy.6 mph75%29.91 "Hg10 mi
12:40 am59 °FOvercast.3 mph75%29.92 "Hg10 mi
11:53 pm
Sat, May 18
60 °FMostly cloudy.7 mph75%29.92 "Hg10 mi
11:37 pm60 °FLight rain. Mostly cloudy.5 mph72%29.92 "Hg10 mi
11:01 pm62 °FLight rain. Mostly cloudy.No wind67%29.91 "Hg10 mi
10:37 pm62 °FLight rain. Mostly cloudy.5 mph67%29.92 "Hg10 mi
9:53 pm63 °FOvercast.No wind65%29.91 "Hg10 mi
8:53 pm63 °FMostly cloudy.5 mph68%29.91 "Hg10 mi
7:53 pm64 °FOvercast.6 mph63%29.90 "Hg10 mi
6:53 pm65 °FLight rain. Partly sunny.7 mph66%29.90 "Hg10 mi
5:53 pm67 °FMore clouds than sun.5 mph57%29.90 "Hg10 mi
4:53 pm68 °FBroken clouds.8 mph55%29.92 "Hg10 mi
3:53 pm69 °FOvercast.9 mph49%29.93 "Hg10 mi
2:53 pm72 °FPartly sunny.8 mph40%29.94 "Hg10 mi
1:53 pm73 °FPartly sunny.10 mph37%29.95 "Hg10 mi
12:53 pm72 °FPartly sunny.N/A40%29.96 "Hg10 mi
11:53 am71 °FSunny.No wind44%29.96 "Hg10 mi
Weather by CustomWeather, © 2019

See weather overview